1499558400.36,7199,17.19,74052.3,2.51,-1.79,-6.69,0,*4B
1499558401.57,7200,17.19,74040.0,2.51,-2.27,-6.51,0,*4B
1499558402.84,7201,17.19,74046.0,2.51,-1.99,-5.89,0,*4A
1499558404.08,7202,17.19,74046.5,2.51,-1.99,-5.47,0,*4B
1499558405.31,7203,17.19,74040.5,2.51,-1.91,-6.13,0,*40
1499558406.57,7204,17.19,74046.8,2.51,-2.11,-6.63,0,*4B
1499558407.78,7205,17.19,74052.8,2.51,-2.19,-6.55,0,*47
1499558408.98,7206,17.19,74050.8,2.51,-2.27,-6.69,0,*46
1499558410.16,7207,17.19,74048.5,2.49,-2.27,-6.55,0,*41
1499558411.37,7208,17.19,74054.8,2.49,-2.11,-6.55,0,*4B
1499558412.64,7209,17.19,74050.5,2.51,-1.99,-5.77,0,*43
1499558413.85,7210,17.19,74048.8,2.51,-1.29,-5.51,0,*44
1499558415.09,7211,17.19,74050.5,2.49,-1.35,-5.19,0,*4D
1499558416.34,7212,17.19,74044.8,2.51,-1.17,-5.23,0,*4E
1499558417.57,7213,17.19,74048.5,2.51,-1.51,-5.85,0,*41
1499558418.78,7214,17.19,74052.0,2.51,-1.79,-6.31,0,*40
1499558419.98,7215,17.19,74048.8,2.51,-1.79,-6.09,0,*4A
1499558421.19,7216,17.19,74046.5,2.51,-1.79,-5.97,0,*4D
1499558422.42,7217,17.19,74046.8,2.51,-1.87,-6.01,0,*41
1499558423.62,7218,17.19,74046.0,2.51,-1.79,-6.01,0,*4F
1499558424.86,7219,17.19,74036.3,2.51,-1.67,-5.31,0,*41
1499558426.05,7220,17.19,74042.8,2.49,-1.17,-4.99,0,*46
1499558427.25,7221,17.19,74042.3,2.51,-1.63,-5.97,0,*42
1499558428.46,7222,17.19,74042.3,2.51,-2.27,-6.55,0,*4F
1499558429.66,7223,17.19,74046.5,2.51,-2.43,-6.55,0,*4C
1499558430.89,7224,17.19,74050.0,2.51,-2.43,-6.63,0,*4E
1499558432.08,7225,17.19,74044.5,2.49,-2.43,-6.31,0,*41
1499558433.32,7226,17.19,74048.8,2.49,-2.51,-5.85,0,*4D
1499558434.52,7227,17.19,74046.8,2.49,-2.43,-3.43,0,*43
1499558435.7,7228,17.19,74036.8,2.49,-1.51,-1.63,0,*4C
1499558436.88,7229,17.19,74024.5,2.49,-0.29,-1.75,0,*74
1499558438.07,7230,17.19,74018.5,2.49,0.37,-1.51,0,*58
1499558439.29,7231,17.19,74014.8,2.49,0.79,-0.93,0,*6C
1499558440.46,7232,17.19,74012.3,2.49,0.43,-1.51,0,*59
1499558441.65,7233,17.19,74018.0,2.49,0.37,-2.79,0,*52
1499558442.85,7234,17.19,74022.8,2.51,0.09,-4.21,0,*6A
1499558444.08,7235,17.19,74024.0,2.49,-0.93,-5.23,0,*7F
1499558445.27,7236,17.19,74042.0,2.49,-1.79,-6.43,0,*4C
1499558446.45,7237,17.19,74038.3,2.49,-2.31,-6.69,0,*4A
1499558447.68,7238,17.19,74040.0,2.49,-2.55,-6.93,0,*42
1499558448.92,7239,17.19,74048.0,2.51,-2.67,-7.15,0,*44
1499558450.15,7240,17.19,74048.3,2.49,-2.67,-7.31,0,*45
1499558451.38,7241,17.19,74048.8,2.47,-2.67,-6.85,0,*44
1499558452.62,7242,17.19,74046.3,2.47,-2.95,-5.89,0,*45
1499558453.82,7243,17.19,74042.5,2.47,-2.43,-4.33,0,*4F
1499558455.09,7244,17.19,74046.0,2.47,-1.43,-2.67,0,*4C
1499558456.27,7245,17.19,74042.8,2.45,-0.69,-1.59,0,*78
1499558457.5,7246,17.19,74044.0,2.47,0.13,-0.23,0,*65
1499558458.74,7247,17.19,74036.0,2.47,0.87,0.51,0,*41
1499558459.96,7248,17.19,74038.5,2.47,1.05,0.87,0,*7E
1499558461.2,7249,17.19,74036.8,2.47,1.59,1.13,0,*4A
1499558462.45,7250,17.19,74030.3,2.47,1.63,1.13,0,*4B
1499558463.67,7251,17.19,74030.3,2.49,1.67,1.17,0,*44
1499558464.89,7252,17.19,74026.5,2.51,1.75,1.21,0,*48
1499558466.11,7253,17.19,74026.3,2.49,1.67,1.17,0,*46
1499558467.34,7254,17.19,74020.8,2.49,1.63,1.09,0,*4A
1499558468.54,7255,17.19,74014.0,2.49,1.63,1.05,0,*47
1499558469.73,7256,17.19,74012.8,2.51,1.75,1.05,0,*4A
1499558470.93,7257,17.19,74006.8,2.51,1.75,1.05,0,*4B
1499558472.16,7258,17.19,74018.3,2.53,1.85,1.09,0,*45
1499558473.36,7259,17.19,74018.0,2.53,1.85,1.01,0,*4C
1499558474.58,7260,17.19,74020.0,2.53,1.85,0.83,0,*7D
1499558475.8,7261,17.19,74026.3,2.57,1.85,0.63,0,*76
1499558477.02,7262,17.19,74036.3,2.57,1.85,0.41,0,*75
1499558478.2,7263,17.19,74034.0,2.57,1.83,0.25,0,*70
1499558479.4,7264,17.19,74040.3,2.53,1.59,-0.37,0,*5A
1499558480.62,7265,17.19,74042.3,2.57,1.51,-0.97,0,*5D
1499558481.85,7266,17.19,74046.3,2.57,1.13,-1.95,0,*6B
1499558483.04,7267,17.19,74062.0,2.57,0.55,-3.23,0,*56
1499558484.24,7268,17.19,74050.5,2.59,-0.29,-2.95,0,*7D
1499558485.44,7269,17.19,74050.5,2.61,-0.19,-3.43,0,*7E
1499558486.63,7270,17.19,74048.5,2.59,0.01,-2.43,0,*68
1499558487.87,7271,17.19,74046.0,2.59,0.33,-2.55,0,*5F
1499558489.08,7272,17.19,74040.3,2.59,0.41,-3.19,0,*50
1499558490.3,7273,17.19,74044.3,2.59,-0.07,-3.67,0,*47
1499558491.52,7274,17.19,74046.3,2.59,-0.29,-3.59,0,*71
1499558492.71,7275,17.19,74046.8,2.59,-0.61,-3.11,0,*70
1499558493.92,7276,17.19,74046.3,2.61,-0.77,-2.07,0,*79
1499558495.12,7277,17.19,74044.0,2.59,-0.29,-0.41,0,*48
1499558496.35,7278,17.19,74046.0,2.59,0.67,0.75,0,*4A
1499558497.6,7279,17.19,74036.5,2.59,1.25,1.13,0,*4D
1499558498.82,7280,17.19,74036.5,2.61,1.63,1.17,0,*46
1499558500.02,7281,17.19,74034.5,2.61,1.79,1.21,0,*49
1499558501.24,7282,17.19,74032.3,2.59,1.83,1.17,0,*41
1499558502.4,7283,17.19,74036.3,2.61,1.79,1.05,0,*4D
1499558503.59,7284,17.19,74042.3,2.61,1.79,0.79,0,*70
1499558504.81,7285,17.19,74048.5,2.61,1.67,0.37,0,*74
1499558506.04,7286,17.19,74048.8,2.63,1.63,0.17,0,*73
1499558507.26,7287,17.19,74046.3,2.65,1.59,0.13,0,*79
1499558508.46,7288,17.19,74046.3,2.65,1.47,-0.11,0,*56
1499558509.67,7289,17.19,74052.0,2.65,1.21,-0.37,0,*53
1499558510.88,7290,17.19,74046.0,2.65,1.05,-1.09,0,*61
1499558512.07,7291,17.19,74046.3,2.65,0.75,-1.51,0,*5B
1499558513.26,7292,17.19,74044.3,2.65,0.63,-0.65,0,*69
1499558514.46,7293,17.19,74042.3,2.65,0.37,0.41,0,*42
1499558515.67,7294,17.19,74032.8,2.65,0.71,0.51,0,*46
1499558516.9,7295,17.19,74022.5,2.65,1.25,0.47,0,*70
1499558518.12,7296,17.19,74024.0,2.65,1.55,0.21,0,*74
1499558519.34,7297,17.19,74028.5,2.65,1.47,0.47,0,*76
1499558520.53,7298,17.19,74028.8,2.65,1.47,0.97,0,*74
1499558521.76,7299,17.19,74028.3,2.65,1.55,1.21,0,*4A
1499558522.96,7300,17.19,74036.8,2.65,1.79,1.13,0,*44
1499558524.16,7301,17.19,74036.3,2.65,1.79,1.13,0,*45
1499558525.37,7302,17.19,74054.3,2.65,1.89,0.83,0,*71
1499558526.63,7303,17.19,74054.0,2.69,1.85,0.51,0,*7F
1499558527.83,7304,17.19,74054.0,2.67,1.83,-0.11,0,*59
1499558529.03,7305,17.19,74050.8,2.67,1.75,-0.49,0,*5C
1499558530.26,7306,17.19,74062.0,2.69,1.47,-0.69,0,*52
1499558531.49,7307,17.19,74056.8,2.69,1.29,-0.61,0,*53
1499558532.72,7308,17.19,74052.3,2.69,1.37,-0.81,0,*5D
1499558533.97,7309,17.19,74044.3,2.67,1.29,-0.93,0,*5E
1499558535.23,7310,17.19,74050.3,2.67,1.13,-1.09,0,*6D
1499558536.47,7311,17.19,74048.3,2.69,1.13,-1.79,0,*65
1499558537.72,7312,17.19,74048.5,2.69,0.63,-2.59,0,*51
1499558538.93,7313,17.19,74056.8,2.67,0.43,-2.59,0,*5C
1499558540.18,7314,17.19,74052.0,2.69,0.29,-2.07,0,*52
1499558541.39,7315,17.19,74046.0,2.67,0.43,-1.95,0,*59
1499558542.65,7316,17.19,74050.0,2.69,0.55,-2.47,0,*5F
1499558543.84,7317,17.19,74046.5,2.69,0.43,-3.11,0,*5B
1499558545.03,7318,17.19,74050.3,2.67,0.05,-3.95,0,*64
1499558546.26,7319,17.19,74048.8,2.67,-0.57,-4.85,0,*79
1499558547.53,7320,17.19,74048.8,2.69,-0.97,-5.23,0,*7C
1499558548.79,7321,17.19,74048.8,2.67,-1.47,-5.81,0,*47
1499558549.99,7322,17.19,74054.5,2.67,-1.79,-6.05,0,*46
1499558551.25,7323,17.19,74048.8,2.69,-1.91,-6.23,0,*4B
1499558552.48,7324,17.19,74052.5,2.67,-1.71,-5.81,0,*47
1499558553.71,7325,17.19,74056.0,2.67,-1.21,-3.63,0,*49
1499558554.91,7326,17.19,74058.0,2.67,-0.07,-1.33,0,*48
1499558556.09,7327,17.19,74064.0,2.69,0.43,-0.29,0,*60
1499558557.32,7328,17.19,74048.0,2.69,0.79,-0.11,0,*6D
1499558558.51,7329,17.19,74038.3,2.67,1.01,0.01,0,*40
1499558559.74,7330,17.19,74034.3,2.69,1.13,0.01,0,*45
1499558560.98,7331,17.19,74032.8,2.69,1.13,-0.11,0,*58
1499558562.21,7332,17.19,74032.0,2.69,1.25,-0.19,0,*56
1499558563.45,7333,17.19,74032.0,2.69,1.25,-0.19,0,*57
1499558564.68,7334,17.19,74030.5,2.69,1.25,-0.19,0,*50
1499558565.91,7335,17.19,74032.3,2.69,1.29,-0.29,0,*5E
1499558567.15,7336,17.19,74024.5,2.69,1.29,-0.45,0,*57
1499558568.35,7337,17.19,74026.0,2.71,1.33,-0.53,0,*53
1499558569.59,7338,17.19,74022.3,2.69,1.29,-0.81,0,*51
1499558570.85,7339,17.19,74026.5,2.69,1.13,-0.85,0,*5D
1499558572.05,7340,17.19,74032.5,2.69,0.97,-0.81,0,*6A
1499558573.27,7341,17.19,74038.3,2.71,0.91,-1.13,0,*5E
1499558574.5,7342,17.19,74044.5,2.71,0.79,-2.07,0,*5D
1499558575.69,7343,17.19,74048.8,2.71,0.29,-3.19,0,*57
1499558576.91,7344,17.19,74046.5,2.69,-0.29,-3.71,0,*7A
1499558578.15,7345,17.19,74054.5,2.69,-0.45,-4.89,0,*71
1499558579.41,7346,17.19,74056.0,2.69,-0.85,-4.89,0,*7E
1499558580.65,7347,17.19,74062.0,2.69,-0.73,-5.15,0,*72
1499558581.86,7348,17.19,74060.5,2.69,-1.25,-5.51,0,*4F
1499558583.1,7349,17.19,74060.8,2.67,-1.35,-5.39,0,*4F
1499558584.31,7350,17.19,74058.0,2.67,-1.33,-4.33,0,*4A
1499558585.52,7351,17.19,74056.0,2.69,-0.69,-4.25,0,*7C
1499558586.77,7352,17.19,74048.5,2.69,-0.93,-5.31,0,*7E
1499558588.02,7353,17.19,74042.8,2.67,-1.21,-5.27,0,*4E
1499558589.25,7354,17.19,74046.0,2.67,-1.33,-5.65,0,*4C
1499558590.49,7355,17.19,74054.3,2.67,-1.67,-5.89,0,*4E
1499558591.69,7356,17.19,74054.8,2.67,-1.67,-5.43,0,*4B
1499558592.91,7357,17.19,74052.8,2.65,-1.21,-2.51,0,*4E
1499558594.08,7358,17.19,74044.0,2.65,0.01,-1.63,0,*6D
1499558595.26,7359,17.19,74040.0,2.67,0.43,-1.25,0,*5A
1499558596.48,7360,17.19,74040.8,2.69,0.63,-0.45,0,*6B
1499558597.67,7361,17.19,74046.3,2.69,0.97,0.01,0,*7C
1499558598.92,7362,17.19,74050.3,2.67,1.37,0.37,0,*7F
1499558600.18,7363,17.19,74048.0,2.69,1.29,0.75,0,*79
1499558601.37,7364,17.19,74048.3,2.67,1.41,0.97,0,*72
1499558602.59,7365,17.19,74042.5,2.69,1.51,1.01,0,*42
1499558603.83,7366,17.19,74032.3,2.69,1.59,0.87,0,*76
1499558605.08,7367,17.19,74022.8,2.69,1.71,0.87,0,*7D
1499558606.33,7368,17.19,74030.0,2.69,1.63,0.51,0,*7A
1499558607.57,7369,17.19,74030.0,2.69,1.51,0.13,0,*7C
1499558608.77,7370,17.19,74028.8,2.71,1.43,-0.07,0,*66
1499558609.98,7371,17.19,74038.5,2.71,1.33,-0.15,0,*53
1499558611.19,7372,17.19,74042.3,2.71,1.29,-0.15,0,*5B
1499558612.4,7373,17.19,74038.5,2.71,1.21,-0.29,0,*5D
1499558613.63,7374,17.19,74048.0,2.71,1.13,-0.89,0,*51
1499558614.84,7375,17.19,74038.8,2.71,0.91,-1.51,0,*5F
1499558616.06,7376,17.19,74042.5,2.71,0.79,-1.87,0,*51
1499558617.29,7377,17.19,74050.3,2.73,0.59,-2.15,0,*58
1499558618.48,7378,17.19,74048.5,2.71,0.43,-1.95,0,*55
1499558619.69,7379,17.19,74038.3,2.71,0.33,-2.03,0,*5F
1499558620.91,7380,17.19,74028.5,2.73,0.43,-1.95,0,*50
1499558622.13,7381,17.19,74042.5,2.73,0.43,-1.91,0,*55
1499558623.36,7382,17.19,74036.0,2.73,0.41,-1.79,0,*52
1499558624.59,7383,17.19,74028.8,2.73,0.55,-1.75,0,*5A
1499558625.81,7384,17.19,74032.5,2.73,0.43,-1.91,0,*50
1499558627.01,7385,17.19,74028.8,2.71,0.47,-2.15,0,*58
1499558628.23,7386,17.19,74030.8,2.73,0.41,-2.39,0,*51
1499558629.49,7387,17.19,74046.3,2.73,0.29,-2.75,0,*56
1499558630.74,7388,17.19,74032.8,2.73,0.33,-2.75,0,*52
1499558631.93,7389,17.19,74040.8,2.71,0.21,-2.91,0,*58
1499558633.16,7390,17.19,74042.3,2.73,0.09,-2.75,0,*62
1499558634.34,7391,17.19,74048.8,2.71,-0.03,-2.95,0,*48
1499558635.5,7392,17.19,74054.0,2.71,0.05,-3.15,0,*69
1499558636.68,7393,17.19,74056.5,2.71,-0.15,-4.17,0,*71
1499558637.86,7394,17.19,74060.5,2.71,-0.45,-4.05,0,*70
1499558639.04,7395,17.19,74060.8,2.71,-0.77,-4.49,0,*78
1499558640.27,7396,17.19,74062.8,2.71,-0.93,-5.11,0,*7D
1499558641.47,7397,17.19,74056.3,2.71,-0.89,-4.45,0,*77
1499558642.69,7398,17.19,74054.0,2.71,-0.89,-3.71,0,*78
1499558643.9,7399,17.19,74060.0,2.69,-0.33,-2.35,0,*70
1499558645.12,7400,17.19,74058.3,2.69,0.01,-2.07,0,*6A
1499558646.31,7401,17.19,74060.0,2.69,0.01,-2.19,0,*64
1499558647.56,7402,17.19,74060.5,2.69,0.25,-2.71,0,*5F
1499558648.81,7403,17.19,74064.0,2.69,0.13,-2.47,0,*5E
1499558650.0,7404,17.19,74048.0,2.71,0.29,-2.83,0,*51
1499558651.2,7405,17.19,74052.0,2.73,-0.03,-3.19,0,*45
1499558652.4,7406,17.19,74050.0,2.71,-0.37,-3.71,0,*7D
1499558653.58,7407,17.19,74056.8,2.71,-0.57,-3.95,0,*70
1499558654.75,7408,17.19,74050.8,2.71,-0.65,-4.17,0,*73
1499558655.97,7409,17.19,74050.5,2.69,-0.61,-3.71,0,*78
1499558657.15,7410,17.19,74056.5,2.71,-0.29,-2.83,0,*79
1499558658.38,7411,17.19,74058.5,2.69,-0.11,-2.71,0,*77
1499558659.59,7412,17.19,74056.5,2.69,-0.11,-2.35,0,*74
1499558660.82,7413,17.19,74056.8,2.69,-0.07,-1.35,0,*41
1499558662.06,7414,17.19,74062.5,2.67,0.25,-0.97,0,*6C
1499558663.3,7415,17.19,74056.3,2.69,0.87,-0.23,0,*64
1499558664.55,7416,17.19,74048.0,2.69,1.13,-0.11,0,*5A
1499558665.74,7417,17.19,74042.8,2.69,1.01,0.05,0,*40
1499558666.94,7418,17.19,74044.0,2.71,1.01,0.47,0,*70
1499558668.17,7419,17.19,74038.8,2.71,1.17,0.55,0,*75
1499558669.36,7420,17.19,74050.5,2.71,1.41,0.33,0,*7C
1499558670.55,7421,17.19,74052.3,2.71,1.51,0.09,0,*45
1499558671.77,7422,17.19,74054.5,2.71,1.43,0.33,0,*7C
1499558673.02,7423,17.19,74052.8,2.73,1.33,0.95,0,*74
1499558674.27,7424,17.19,74052.3,2.73,1.51,1.29,0,*41
1499558675.5,7425,17.19,74046.3,2.73,1.75,1.21,0,*4E
1499558676.76,7426,17.19,74038.5,2.73,1.85,1.21,0,*42
1499558678.01,7427,17.19,74042.0,2.73,1.89,1.29,0,*47
1499558679.26,7428,17.19,74042.5,2.73,1.89,1.21,0,*40
1499558680.49,7429,17.19,74042.3,2.75,1.93,1.09,0,*46
1499558681.72,7430,17.19,74038.3,2.79,1.97,1.21,0,*4C
1499558682.94,7431,17.19,74044.8,2.75,1.89,1.17,0,*4B
1499558684.16,7432,17.19,74046.3,2.75,1.93,1.17,0,*43
1499558685.39,7433,17.19,74044.3,2.75,2.01,1.09,0,*45
1499558686.61,7434,17.19,74046.0,2.79,2.05,1.25,0,*44
1499558687.84,7435,17.19,74052.0,2.79,1.97,1.29,0,*41
1499558689.07,7436,17.19,74058.0,2.79,2.05,1.37,0,*45
1499558690.26,7437,17.19,74056.8,2.79,1.93,0.97,0,*73
1499558691.45,7438,17.19,74060.3,2.79,1.59,1.01,0,*44
1499558692.7,7439,17.19,74052.3,2.81,1.59,1.51,0,*47
1499558693.92,7440,17.19,74046.5,2.83,1.97,1.97,0,*43
1499558695.18,7441,17.19,74032.5,2.81,2.05,2.05,0,*40
1499558696.43,7442,17.19,74034.3,2.81,2.25,2.13,0,*46
1499558697.63,7443,17.19,74030.8,2.83,2.27,2.17,0,*43
1499558698.8,7444,17.19,74034.5,2.83,2.35,2.27,0,*44
1499558700.03,7445,17.19,74034.0,2.81,2.35,2.21,0,*41
1499558701.25,7446,17.19,74036.5,2.83,2.39,2.25,0,*48
1499558702.48,7447,17.19,74040.5,2.83,2.47,2.13,0,*45
1499558703.73,7448,17.19,74040.5,2.81,2.43,2.05,0,*4B
1499558704.93,7449,17.19,74036.3,2.83,2.35,1.85,0,*42
1499558706.13,7450,17.19,74044.5,2.83,2.27,1.55,0,*44
1499558707.38,7451,17.19,74042.0,2.85,2.25,1.17,0,*47
1499558708.62,7452,17.19,74048.8,2.85,2.09,0.67,0,*7C
1499558709.84,7453,17.19,74056.3,2.85,1.85,0.43,0,*7C
1499558711.08,7454,17.19,74058.8,2.85,1.43,0.41,0,*73
1499558712.32,7455,17.19,74050.3,2.85,1.33,-0.45,0,*5C
1499558713.57,7456,17.19,74046.5,2.85,1.17,-0.89,0,*59
1499558714.8,7457,17.19,74046.3,2.85,0.91,-0.69,0,*69
1499558716.0,7458,17.19,74050.3,2.85,1.05,-0.65,0,*56
1499558717.26,7459,17.19,74052.0,2.85,1.17,-1.05,0,*63
1499558718.5,7460,17.19,74054.5,2.85,1.13,-1.51,0,*6C
1499558719.71,7461,17.19,74050.8,2.83,0.79,-1.21,0,*51
1499558720.94,7462,17.19,74052.8,2.85,0.83,-1.21,0,*51
1499558722.17,7463,17.19,74048.3,2.85,0.79,-1.51,0,*52
1499558723.39,7464,17.19,74048.5,2.85,0.71,-1.17,0,*5F
1499558724.59,7465,17.19,74052.5,2.87,0.87,-0.77,0,*62
1499558725.8,7466,17.19,74052.5,2.85,0.67,-0.69,0,*62
1499558727.02,7467,17.19,74052.5,2.85,0.51,-0.77,0,*69
1499558728.25,7468,17.19,74054.3,2.85,0.91,-0.81,0,*63
1499558729.47,7469,17.19,74058.3,2.85,0.95,-0.57,0,*6D
1499558730.7,7470,17.19,74048.5,2.85,1.17,-0.57,0,*5E
1499558731.91,7471,17.19,74042.0,2.83,0.91,-0.15,0,*60
1499558733.11,7472,17.19,74046.0,2.85,1.01,0.05,0,*41
1499558734.3,7473,17.19,74046.5,2.85,1.41,0.09,0,*48
1499558735.5,7474,17.19,74046.3,2.85,1.41,0.43,0,*71
1499558736.71,7475,17.19,74036.0,2.87,1.47,0.71,0,*75
1499558737.95,7476,17.19,74038.3,2.85,1.67,0.67,0,*71
1499558739.2,7477,17.19,74034.8,2.85,1.85,0.67,0,*7C
1499558740.42,7478,17.19,74030.8,2.85,1.79,0.33,0,*71
1499558741.64,7479,17.19,74030.5,2.85,1.67,-0.33,0,*52
1499558742.84,7480,17.19,74012.8,2.87,1.59,-0.29,0,*50
1499558744.06,7481,17.19,74018.0,2.87,1.55,0.33,0,*7B
1499558745.31,7482,17.19,74010.5,2.85,1.55,0.51,0,*7E
1499558746.56,7483,17.19,74008.5,2.85,1.63,0.59,0,*72
1499558747.75,7484,17.19,74016.5,2.87,1.71,0.01,0,*49
1499558748.97,7485,17.19,74006.8,2.87,1.67,-0.97,0,*5D
1499558750.18,7486,17.19,74018.5,2.87,1.43,-0.85,0,*5B
1499558751.41,7487,17.19,74016.0,2.87,1.33,-0.85,0,*5D
1499558752.68,7488,17.19,74014.5,2.85,1.13,-1.43,0,*69
1499558753.89,7489,17.19,74020.5,2.85,0.67,-0.45,0,*6D
1499558755.14,7490,17.19,74024.5,2.85,0.91,0.29,0,*4B
1499558756.37,7491,17.19,74030.8,2.87,1.21,0.47,0,*7A
1499558757.56,7492,17.19,74024.0,2.87,1.43,0.43,0,*79
1499558758.77,7493,17.19,74026.0,2.87,1.43,0.25,0,*78
1499558759.97,7494,17.19,74034.3,2.87,1.55,0.01,0,*4E
1499558761.19,7495,17.19,74034.3,2.87,1.47,-0.89,0,*51
1499558762.38,7496,17.19,74038.0,2.87,0.95,-2.15,0,*5B
1499558763.6,7497,17.19,74036.5,2.89,0.43,-3.51,0,*5E
1499558764.77,7498,17.19,74038.3,2.87,-0.03,-3.91,0,*4A
1499558765.98,7499,17.19,74034.5,2.85,-0.53,-4.37,0,*77
1499558767.15,7500,17.19,74034.0,2.87,-0.49,-3.23,0,*7D
1499558768.36,7501,17.19,74032.0,2.85,-0.19,-3.27,0,*7F
1499558769.54,7502,17.19,74038.5,2.87,-0.45,-4.45,0,*74
1499558770.78,7503,17.19,74038.3,2.87,-1.05,-5.03,0,*43
1499558772.02,7504,17.19,74044.8,2.85,-1.55,-6.19,0,*4B
1499558773.25,7505,17.19,74044.0,2.85,-2.03,-6.39,0,*48
1499558774.49,7506,17.19,74042.5,2.85,-1.51,-5.11,0,*46
1499558775.72,7507,17.19,74040.3,2.85,-1.51,-5.85,0,*4A
1499558776.97,7508,17.19,74036.3,2.81,-1.55,-5.19,0,*40
1499558778.2,7509,17.19,74042.8,2.81,-1.43,-4.09,0,*46
1499558779.44,7510,17.19,74032.8,2.81,-0.37,-2.59,0,*7F
1499558780.64,7511,17.19,74032.8,2.81,0.01,-1.71,0,*6F
1499558781.89,7512,17.19,74040.3,2.81,0.51,-1.43,0,*58
1499558783.12,7513,17.19,74036.3,2.81,0.47,-2.83,0,*51
1499558784.36,7514,17.19,74038.8,2.81,0.13,-3.59,0,*51
1499558785.55,7515,17.19,74032.8,2.83,-0.19,-3.27,0,*7C
1499558786.77,7516,17.19,74030.8,2.81,0.29,-2.83,0,*5C
1499558788.02,7517,17.19,74024.3,2.81,0.67,-1.47,0,*5C
1499558789.23,7518,17.19,74024.3,2.81,1.01,-2.95,0,*6E
1499558790.47,7519,17.19,74032.3,2.81,-0.33,-5.15,0,*7D
1499558791.7,7520,17.19,74026.5,2.81,-0.85,-4.33,0,*7F
1499558792.93,7521,17.19,74036.8,2.81,-0.23,-3.35,0,*73
1499558794.14,7522,17.19,74030.3,2.81,-0.19,-3.87,0,*70
1499558795.32,7523,17.19,74042.0,2.83,-0.03,-4.49,0,*4D
1499558796.52,7524,17.19,74036.3,2.81,-0.49,-4.99,0,*7B
1499558797.76,7525,17.19,74036.8,2.79,-1.13,-5.89,0,*43
1499558798.95,7526,17.19,74036.0,2.79,-1.71,-6.05,0,*43
1499558800.17,7527,17.19,74038.5,2.79,-1.71,-5.81,0,*4D
1499558801.4,7528,17.19,74046.3,2.75,-0.97,-4.01,0,*7E
1499558802.59,7529,17.19,74046.0,2.79,-0.19,-3.19,0,*7B
1499558803.78,7530,17.19,74046.5,2.75,0.21,-3.23,0,*50
1499558804.95,7531,17.19,74042.0,2.75,0.09,-3.91,0,*62
1499558806.15,7532,17.19,74048.8,2.75,0.25,-3.87,0,*58
1499558807.37,7533,17.19,74054.8,2.79,0.51,-1.47,0,*58
1499558808.59,7534,17.19,74038.8,2.75,1.17,-1.17,0,*65
1499558809.8,7535,17.19,74036.0,2.75,1.33,-1.59,0,*68
1499558811.02,7536,17.19,74044.3,2.79,1.21,-2.23,0,*6A
1499558812.26,7537,17.19,74046.0,2.79,1.21,-2.71,0,*6C
1499558813.48,7538,17.19,74054.5,2.79,1.29,-4.09,0,*62
1499558814.72,7539,17.19,74052.0,2.81,1.09,-4.21,0,*6C
1499558815.94,7540,17.19,74060.0,2.79,0.37,-4.73,0,*5E
1499558817.18,7541,17.19,74056.3,2.75,-0.23,-5.19,0,*76
1499558818.39,7542,17.19,74060.0,2.79,-0.23,-4.41,0,*75
1499558819.59,7543,17.19,74058.5,2.79,-0.57,-3.59,0,*79
1499558820.8,7544,17.19,74062.0,2.75,-0.27,-2.91,0,*70
1499558821.97,7545,17.19,74060.3,2.79,-0.07,-2.99,0,*47
1499558823.15,7546,17.19,74060.8,2.75,-0.15,-2.79,0,*75
1499558824.38,7547,17.19,74062.3,2.75,-0.23,-3.63,0,*7B
1499558825.56,7548,17.19,74062.8,2.75,-0.65,-4.29,0,*7F
1499558826.75,7549,17.19,74066.8,2.75,-0.73,-4.17,0,*74
1499558827.92,7550,17.19,74066.8,2.79,-0.61,-4.05,0,*70
1499558829.1,7551,17.19,74064.5,2.75,-0.49,-4.17,0,*74
1499558830.31,7552,17.19,74066.3,2.75,-0.65,-4.01,0,*7E
1499558831.52,7553,17.19,74064.5,2.73,-0.57,-3.79,0,*70
1499558832.7,7554,17.19,74066.8,2.75,-0.65,-3.91,0,*76
1499558833.89,7555,17.19,74064.8,2.75,-0.37,-2.99,0,*79
1499558835.1,7556,17.19,74064.5,2.75,-0.27,-2.39,0,*71
1499558836.29,7557,17.19,74058.5,2.79,0.01,-1.99,0,*6C
1499558837.52,7558,17.19,74058.3,2.75,0.51,-2.11,0,*59
1499558838.72,7559,17.19,74058.8,2.75,0.59,-1.51,0,*57
1499558839.92,7560,17.19,74058.8,2.75,0.25,-1.75,0,*50
1499558841.14,7561,17.19,74058.5,2.75,0.21,-1.91,0,*5F
1499558842.35,7562,17.19,74054.0,2.75,-0.15,-1.47,0,*7D
1499558843.55,7563,17.19,74042.5,2.75,0.21,-1.63,0,*50
1499558844.75,7564,17.19,74050.3,2.75,0.51,-1.17,0,*53
1499558845.95,7565,17.19,74052.3,2.75,0.95,-0.73,0,*69
1499558847.16,7566,17.19,74054.0,2.79,1.01,-1.05,0,*6A
1499558848.37,7567,17.19,74056.5,2.79,0.87,-1.67,0,*50
1499558849.57,7568,17.19,74060.3,2.75,0.63,-2.39,0,*51
1499558850.77,7569,17.19,74066.8,2.79,0.29,-2.99,0,*58
1499558851.95,7570,17.19,74064.0,2.75,-0.41,-4.45,0,*78
1499558853.14,7571,17.19,74066.5,2.75,-0.77,-4.65,0,*7E
1499558854.35,7572,17.19,74058.8,2.75,-0.97,-4.45,0,*71
1499558855.52,7573,17.19,74060.8,2.79,-0.61,-3.95,0,*7F
1499558856.73,7574,17.19,74068.8,2.75,-0.65,-4.01,0,*7A
1499558857.95,7575,17.19,74066.8,2.75,-1.01,-4.53,0,*4F
1499558859.19,7576,17.19,74056.8,2.75,-1.47,-4.89,0,*49
1499558860.4,7577,17.19,74058.0,2.75,-1.09,-3.79,0,*4A
1499558861.61,7578,17.19,74066.5,2.75,-0.85,-3.91,0,*76
1499558862.84,7579,17.19,74056.8,2.73,-0.53,-3.59,0,*7E
1499558864.02,7580,17.19,74056.5,2.75,-0.53,-3.23,0,*73
1499558865.22,7581,17.19,74058.5,2.75,-0.61,-1.91,0,*78
1499558866.43,7582,17.19,74056.0,2.73,-0.03,-0.69,0,*7F
1499558867.65,7583,17.19,74056.8,2.73,0.55,-0.53,0,*69
1499558868.87,7584,17.19,74056.8,2.73,0.95,-0.53,0,*62
1499558870.11,7585,17.19,74048.8,2.73,0.91,-0.69,0,*6E
1499558871.35,7586,17.19,74042.8,2.73,0.41,-0.89,0,*6E
1499558872.57,7587,17.19,74046.0,2.75,0.33,-1.01,0,*5D
1499558873.78,7588,17.19,74042.8,2.75,0.37,-0.23,0,*67
1499558874.98,7589,17.19,74040.8,2.75,0.95,-0.37,0,*6B
1499558876.18,7590,17.19,74042.5,2.75,0.83,-0.65,0,*63
1499558877.37,7591,17.19,74032.3,2.75,0.59,-0.73,0,*62
1499558878.56,7592,17.19,74034.3,2.75,-0.11,-1.71,0,*73
1499558879.8,7593,17.19,74026.8,2.75,-0.27,-2.63,0,*77
1499558881.01,7594,17.19,74030.5,2.75,-1.01,-3.39,0,*4B
1499558882.23,7595,17.19,74034.0,2.75,-1.13,-4.57,0,*46
1499558883.48,7596,17.19,74044.8,2.75,-1.39,-5.31,0,*4C
1499558884.69,7597,17.19,74050.8,2.79,-1.43,-5.39,0,*44
1499558885.91,7598,17.19,74054.3,2.75,-1.75,-5.23,0,*49
1499558887.13,7599,17.19,74056.8,2.75,-1.13,-4.37,0,*4C
1499558888.32,7600,17.19,74052.3,2.75,-1.25,-5.47,0,*4C
1499558889.53,7601,17.19,74050.5,2.75,-1.99,-6.09,0,*43
1499558890.77,7602,17.19,74054.0,2.73,-2.31,-6.27,0,*4B
1499558891.95,7603,17.19,74056.8,2.71,-2.39,-6.39,0,*4F
1499558893.13,7604,17.19,74056.5,2.71,-2.39,-6.39,0,*48
1499558894.34,7605,17.19,74060.3,2.71,-2.75,-6.81,0,*42
1499558895.55,7606,17.19,74070.5,2.69,-2.79,-6.85,0,*40
1499558896.79,7607,17.19,74056.3,2.69,-2.55,-6.35,0,*44
1499558898.0,7608,17.19,74056.8,2.67,-2.19,-5.55,0,*48
1499558899.24,7609,17.19,74058.8,2.67,-1.79,-6.19,0,*47
1499558900.45,7610,17.19,74066.8,2.67,-2.23,-6.31,0,*49
1499558901.65,7611,17.19,74056.8,2.67,-2.19,-6.01,0,*42
1499558902.91,7612,17.19,74052.8,2.67,-1.47,-5.15,0,*4F
1499558904.12,7613,17.19,74050.0,2.67,-1.55,-4.37,0,*4C
1499558905.36,7614,17.19,74050.5,2.67,-1.33,-4.73,0,*4B
1499558906.59,7615,17.19,74050.3,2.67,-1.47,-4.65,0,*4E
1499558907.8,7616,17.19,74048.8,2.67,-1.55,-5.39,0,*46
1499558909.06,7617,17.19,74048.8,2.67,-2.11,-5.81,0,*47
1499558910.3,7618,17.19,74050.0,2.67,-2.31,-5.31,0,*41
1499558911.5,7619,17.19,74050.5,2.65,-2.39,-4.77,0,*49
1499558912.7,7620,17.19,74050.5,2.63,-1.79,-4.45,0,*43
1499558913.88,7621,17.19,74052.3,2.65,-1.51,-3.03,0,*4B
1499558915.12,7622,17.19,74050.0,2.65,-1.39,-1.47,0,*44
1499558916.33,7623,17.19,74038.5,2.65,-0.73,-1.09,0,*70
1499558917.54,7624,17.19,74030.5,2.63,0.37,-0.77,0,*64
1499558918.75,7625,17.19,74032.0,2.65,0.75,-0.23,0,*64
1499558919.97,7626,17.19,74032.8,2.65,0.87,0.37,0,*42
1499558921.2,7627,17.19,74038.8,2.65,1.09,0.47,0,*73
1499558922.44,7628,17.19,74044.5,2.67,1.47,0.91,0,*7F
1499558923.66,7629,17.19,74044.5,2.69,1.51,1.01,0,*4F
1499558924.91,7630,17.19,74044.5,2.69,1.59,0.75,0,*7D
1499558926.15,7631,17.19,74050.3,2.69,1.51,0.51,0,*72
1499558927.39,7632,17.19,74058.8,2.69,1.59,0.25,0,*7A
1499558928.6,7633,17.19,74060.5,2.71,1.63,-0.15,0,*55
1499558929.85,7634,17.19,74058.0,2.73,1.43,-1.01,0,*66